| time (UTC) | temp F | wind direction | speed knots | gust knots | rain 1hr in | rain 24hr in | rain mn in | humidity % | barometer mb |
| 20260507052306 | 50 | 303 | 0.9 | 4.3 | 0.01 | 0.26 | 0.07 | 98 | 1012.4 |
| 20260507051804 | 50 | 178 | 0.0 | 1.7 | 0.01 | 0.26 | 0.07 | 98 | 1012.4 |
| 20260507051304 | 50 | 271 | 0.0 | 1.7 | 0.02 | 0.26 | 0.07 | 98 | 1012.4 |
| 20260507050304 | 50 | 271 | 0.0 | 1.7 | 0.02 | 0.26 | 0.07 | 98 | 1012.2 |
| 20260507045804 | 50 | 271 | 0.0 | 2.6 | 0.02 | 0.26 | 0.07 | 98 | 1012.2 |
| 20260507045306 | 50 | 271 | 0.9 | 1.7 | 0.02 | 0.26 | 0.07 | 98 | 1012.2 |
| 20260507044803 | 50 | 271 | 0.0 | 0.9 | 0.02 | 0.25 | 0.06 | 98 | 1012.1 |
| 20260507044304 | 49 | 271 | 0.9 | 2.6 | 0.02 | 0.25 | 0.06 | 98 | 1011.8 |
| 20260507043303 | 49 | 271 | 0.0 | 2.6 | 0.02 | 0.25 | 0.06 | 98 | 1011.8 |
| 20260507042804 | 49 | 271 | 0.9 | 1.7 | 0.02 | 0.25 | 0.06 | 98 | 1011.8 |
| 20260507041803 | 49 | 271 | 0.0 | 1.7 | 0.02 | 0.25 | 0.06 | 98 | 1011.8 |
| 20260507041304 | 49 | 271 | 0.9 | 1.7 | 0.02 | 0.24 | 0.06 | 98 | 1011.7 |
| 20260507035803 | 49 | 305 | 0.9 | 1.7 | 0.01 | 0.24 | 0.05 | 98 | 1011.6 |
| 20260507035306 | 49 | 305 | 0.0 | 1.7 | 0.01 | 0.24 | 0.05 | 98 | 1011.6 |
| 20260507034804 | 49 | 305 | 0.0 | 2.6 | 0.01 | 0.24 | 0.05 | 98 | 1011.6 |
| 20260507034304 | 50 | 311 | 0.9 | 2.6 | 0.01 | 0.24 | 0.05 | 98 | 1011.5 |
| 20260507033303 | 50 | 278 | 0.9 | 2.6 | 0.02 | 0.24 | 0.05 | 97 | 1011.3 |
| 20260507032803 | 50 | 224 | 0.9 | 1.7 | 0.02 | 0.24 | 0.05 | 97 | 1011.3 |
| 20260507032306 | 49 | 306 | 0.9 | 2.6 | 0.02 | 0.24 | 0.05 | 97 | 1011.3 |
| 20260507031804 | 49 | 300 | 0.9 | 2.6 | 0.02 | 0.24 | 0.05 | 97 | 1011.3 |
| 20260507031303 | 49 | 313 | 0.0 | 0.9 | 0.01 | 0.23 | 0.04 | 98 | 1011.3 |
| 20260507030303 | 50 | 266 | 0.0 | 2.6 | 0.01 | 0.23 | 0.04 | 97 | 1011.2 |
| 20260507025804 | 50 | 266 | 0.0 | 1.7 | 0.01 | 0.23 | 0.04 | 98 | 1011.1 |
| 20260507025306 | 50 | 266 | 0.9 | 4.3 | 0.01 | 0.23 | 0.04 | 97 | 1011.1 |
| 20260507024803 | 50 | 130 | 0.9 | 1.7 | 0.01 | 0.23 | 0.04 | 98 | 1011.1 |
| 20260507024303 | 49 | 130 | 0.9 | 2.6 | 0.02 | 0.23 | 0.04 | 97 | 1011.0 |
| 20260507023803 | 50 | 92 | 0.0 | 0.9 | 0.01 | 0.22 | 0.03 | 99 | 1011.0 |
| 20260507023303 | 50 | 92 | 0.9 | 1.7 | 0.02 | 0.22 | 0.03 | 98 | 1011.0 |
| 20260507022803 | 50 | 92 | 0.0 | 2.6 | 0.02 | 0.22 | 0.03 | 98 | 1011.0 |
| 20260507022306 | 50 | 92 | 0.0 | 0.9 | 0.02 | 0.22 | 0.03 | 98 | 1011.0 |
| 20260507021803 | 50 | 92 | 0.0 | 1.7 | 0.02 | 0.22 | 0.03 | 98 | 1010.9 |
| 20260507021303 | 50 | 92 | 0.0 | 1.7 | 0.02 | 0.22 | 0.03 | 97 | 1010.9 |
| 20260507020803 | 50 | 10 | 0.9 | 1.7 | 0.02 | 0.22 | 0.03 | 98 | 1010.8 |
| 20260507020303 | 50 | 108 | 0.9 | 1.7 | 0.03 | 0.22 | 0.03 | 98 | 1010.7 |
| 20260507015804 | 50 | 108 | 0.0 | 0.9 | 0.03 | 0.22 | 0.03 | 98 | 1010.7 |
| 20260507015306 | 50 | 110 | 0.9 | 2.6 | 0.03 | 0.22 | 0.03 | 98 | 1010.7 |
| 20260507014819 | 50 | 153 | 0.0 | 0.9 | 0.03 | 0.22 | 0.03 | 98 | 1010.6 |
| 20260507014318 | 50 | 153 | 0.9 | 1.7 | 0.02 | 0.21 | 0.02 | 98 | 1010.6 |
| 20260507013803 | 50 | 61 | 0.0 | 1.7 | 0.02 | 0.21 | 0.02 | 98 | 1010.6 |
| 20260507012804 | 50 | 61 | 0.9 | 1.7 | 0.02 | 0.20 | 0.02 | 99 | 1010.6 |
| 20260507012306 | 50 | 61 | 0.0 | 0.9 | 0.02 | 0.20 | 0.02 | 98 | 1010.5 |
| 20260507011804 | 50 | 61 | 0.0 | 0.9 | 0.02 | 0.20 | 0.02 | 98 | 1010.5 |
| 20260507011304 | 50 | 61 | 0.0 | 0.9 | 0.01 | 0.20 | 0.01 | 98 | 1010.5 |
| 20260507010804 | 50 | 61 | 0.0 | 0.9 | 0.01 | 0.20 | 0.01 | 98 | 1010.5 |
| 20260507010304 | 50 | 61 | 0.0 | 0.9 | 0.00 | 0.19 | 0.00 | 98 | 1010.5 |
| 20260507004804 | 50 | 82 | 0.0 | 0.9 | 0.00 | 0.20 | 0.00 | 97 | 1010.4 |
| 20260507004304 | 50 | 82 | 0.9 | 4.3 | 0.00 | 0.20 | 0.00 | 96 | 1010.4 |
| 20260507002306 | 50 | 154 | 0.9 | 2.6 | 0.00 | 0.20 | 0.00 | 96 | 1010.4 |
| 20260507001803 | 50 | 249 | 0.0 | 0.9 | 0.00 | 0.20 | 0.00 | 97 | 1010.4 |
| 20260507001304 | 50 | 242 | 0.9 | 2.6 | 0.00 | 0.20 | 0.00 | 96 | 1010.4 |
| 20260507000306 | 50 | 277 | 0.0 | 0.0 | 0.00 | 0.20 | 0.00 | 96 | 1010.4 |
| 20260506235803 | 50 | 277 | 0.0 | 0.0 | 0.00 | 0.20 | 0.00 | 96 | 1010.4 |
| 20260506235306 | 50 | 277 | 0.9 | 4.3 | 0.00 | 0.20 | 0.00 | 95 | 1010.4 |
| 20260506234803 | 50 | 220 | 0.0 | 1.7 | 0.00 | 0.20 | 0.00 | 95 | 1010.4 |
| 20260506233803 | 50 | 261 | 0.0 | 0.9 | 0.00 | 0.20 | 0.00 | 96 | 1010.4 |
| 20260506233304 | 51 | 261 | 0.0 | 0.0 | 0.00 | 0.20 | 0.00 | 96 | 1010.4 |
| 20260506232306 | 51 | 261 | 0.0 | 1.7 | 0.00 | 0.20 | 0.00 | 95 | 1010.5 |
| 20260506231804 | 51 | 261 | 0.9 | 4.3 | 0.00 | 0.20 | 0.00 | 93 | 1010.5 |
| 20260506231303 | 51 | 298 | 0.9 | 2.6 | 0.00 | 0.20 | 0.00 | 94 | 1010.5 |
| 20260506230803 | 51 | 236 | 0.0 | 1.7 | 0.00 | 0.20 | 0.00 | 94 | 1010.5 |
| 20260506230304 | 51 | 270 | 0.9 | 2.6 | 0.00 | 0.20 | 0.00 | 94 | 1010.5 |
| 20260506225803 | 51 | 315 | 0.9 | 4.3 | 0.00 | 0.20 | 0.00 | 94 | 1010.4 |
| 20260506225305 | 51 | 304 | 0.9 | 4.3 | 0.00 | 0.20 | 0.00 | 94 | 1010.4 |
| 20260506224803 | 51 | 206 | 0.9 | 2.6 | 0.00 | 0.20 | 0.00 | 95 | 1010.3 |
| 20260506224304 | 51 | 173 | 0.9 | 0.9 | 0.00 | 0.20 | 0.00 | 95 | 1010.3 |
| 20260506223803 | 51 | 170 | 0.0 | 0.9 | 0.00 | 0.20 | 0.00 | 95 | 1010.3 |
| 20260506223304 | 51 | 162 | 0.9 | 4.3 | 0.00 | 0.20 | 0.00 | 95 | 1010.3 |
| 20260506222804 | 51 | 312 | 1.7 | 2.6 | 0.00 | 0.20 | 0.00 | 95 | 1010.3 |
| 20260506222306 | 51 | 12 | 0.0 | 0.9 | 0.00 | 0.20 | 0.00 | 97 | 1010.3 |
| 20260506221818 | 51 | 12 | 0.0 | 0.0 | 0.00 | 0.20 | 0.00 | 97 | 1010.3 |
| 20260506221304 | 51 | 12 | 0.0 | 0.9 | 0.00 | 0.20 | 0.00 | 97 | 1010.1 |
| 20260506220810 | 51 | 12 | 0.0 | 2.6 | 0.00 | 0.20 | 0.00 | 96 | 1010.1 |
| 20260506220305 | 51 | 277 | 0.9 | 2.6 | 0.00 | 0.20 | 0.00 | 95 | 1010.1 |
| 20260506215803 | 51 | 317 | 0.9 | 1.7 | 0.00 | 0.20 | 0.20 | 96 | 1010.1 |
| 20260506215306 | 51 | 317 | 0.0 | 2.6 | 0.00 | 0.20 | 0.20 | 95 | 1010.1 |
| 20260506214803 | 51 | 186 | 0.0 | 0.9 | 0.00 | 0.20 | 0.20 | 95 | 1010.0 |
| 20260506212803 | 51 | 159 | 0.0 | 1.7 | 0.01 | 0.20 | 0.20 | 96 | 1009.6 |
| 20260506212306 | 51 | 159 | 0.0 | 1.7 | 0.01 | 0.20 | 0.20 | 96 | 1009.6 |
| 20260506211304 | 52 | 195 | 0.9 | 1.7 | 0.01 | 0.20 | 0.20 | 95 | 1009.6 |
| 20260506210304 | 52 | 279 | 0.0 | 1.7 | 0.01 | 0.20 | 0.20 | 96 | 1009.3 |
| 20260506205804 | 52 | 43 | 0.9 | 1.7 | 0.01 | 0.20 | 0.20 | 95 | 1009.3 |
| 20260506205306 | 52 | 42 | 0.9 | 2.6 | 0.01 | 0.20 | 0.20 | 97 | 1009.3 |
| 20260506204804 | 52 | 320 | 0.9 | 2.6 | 0.01 | 0.20 | 0.20 | 96 | 1009.3 |
| 20260506203303 | 51 | 128 | 0.9 | 4.3 | 0.00 | 0.19 | 0.19 | 96 | 1009.3 |
| 20260506202306 | 51 | 302 | 0.0 | 0.9 | 0.00 | 0.19 | 0.19 | 96 | 1009.3 |
| 20260506201304 | 51 | 302 | 0.9 | 1.7 | 0.01 | 0.19 | 0.19 | 97 | 1009.3 |
| 20260506200803 | 51 | 302 | 0.9 | 1.7 | 0.01 | 0.19 | 0.19 | 97 | 1009.3 |
| 20260506200304 | 51 | 302 | 0.0 | 1.7 | 0.02 | 0.19 | 0.19 | 98 | 1009.3 |
| 20260506195306 | 51 | 277 | 0.9 | 2.6 | 0.02 | 0.19 | 0.19 | 97 | 1009.3 |
| 20260506194803 | 51 | 342 | 0.0 | 0.9 | 0.02 | 0.19 | 0.19 | 97 | 1009.3 |
| 20260506194303 | 51 | 342 | 0.0 | 1.7 | 0.02 | 0.19 | 0.19 | 97 | 1009.3 |
| 20260506193804 | 51 | 55 | 0.9 | 1.7 | 0.03 | 0.19 | 0.19 | 97 | 1009.3 |
| 20260506193304 | 51 | 344 | 0.9 | 1.7 | 0.04 | 0.19 | 0.19 | 96 | 1008.8 |
| 20260506192803 | 51 | 344 | 0.0 | 1.7 | 0.04 | 0.19 | 0.19 | 96 | 1008.8 |
| 20260506192305 | 51 | 319 | 0.0 | 2.6 | 0.05 | 0.19 | 0.19 | 97 | 1008.8 |
| 20260506191804 | 51 | 328 | 0.0 | 1.7 | 0.04 | 0.18 | 0.18 | 98 | 1008.8 |
| 20260506190803 | 52 | 329 | 0.9 | 2.6 | 0.05 | 0.18 | 0.18 | 97 | 1008.6 |
| 20260506190304 | 52 | 282 | 0.9 | 4.3 | 0.04 | 0.17 | 0.17 | 97 | 1008.4 |
| 20260506185804 | 52 | 291 | 0.9 | 4.3 | 0.04 | 0.17 | 0.17 | 97 | 1008.4 |
| 20260506185306 | 52 | 136 | 1.7 | 4.3 | 0.03 | 0.17 | 0.17 | 97 | 1008.4 |
| 20260506184804 | 52 | 161 | 1.7 | 4.3 | 0.04 | 0.17 | 0.17 | 97 | 1008.3 |
| 20260506184303 | 52 | 59 | 0.9 | 2.6 | 0.04 | 0.17 | 0.17 | 96 | 1008.3 |
| 20260506183304 | 53 | 61 | 0.9 | 2.6 | 0.02 | 0.15 | 0.15 | 96 | 1008.2 |
| 20260506182804 | 53 | 61 | 0.9 | 4.3 | 0.02 | 0.15 | 0.15 | 97 | 1008.1 |
| 20260506182306 | 53 | 182 | 0.9 | 1.7 | 0.02 | 0.14 | 0.14 | 97 | 1008.1 |
| 20260506181803 | 53 | 321 | 0.9 | 5.2 | 0.02 | 0.14 | 0.14 | 97 | 1008.0 |
| 20260506180803 | 53 | 308 | 0.9 | 1.7 | 0.03 | 0.13 | 0.13 | 97 | 1007.9 |
| 20260506175306 | 53 | 301 | 0.9 | 4.3 | 0.05 | 0.14 | 0.13 | 95 | 1007.9 |
| 20260506174804 | 54 | 280 | 0.9 | 4.3 | 0.04 | 0.13 | 0.13 | 97 | 1007.9 |
| 20260506174304 | 54 | 81 | 0.9 | 4.3 | 0.04 | 0.13 | 0.13 | 97 | 1007.9 |
| 20260506173803 | 54 | 271 | 0.0 | 1.7 | 0.05 | 0.14 | 0.13 | 97 | 1007.8 |
| 20260506173304 | 54 | 273 | 0.9 | 2.6 | 0.05 | 0.15 | 0.13 | 97 | 1007.7 |
| 20260506172306 | 54 | 36 | 0.0 | 1.7 | 0.04 | 0.16 | 0.12 | 97 | 1007.8 |
| 20260506171803 | 54 | 297 | 1.7 | 4.3 | 0.05 | 0.17 | 0.12 | 96 | 1007.8 |
| 20260506171304 | 54 | 288 | 1.7 | 4.3 | 0.03 | 0.16 | 0.10 | 97 | 1007.7 |
| 20260506170804 | 54 | 267 | 0.9 | 2.6 | 0.04 | 0.16 | 0.10 | 97 | 1007.7 |
| 20260506165804 | 54 | 205 | 0.9 | 2.6 | 0.05 | 0.15 | 0.09 | 96 | 1007.6 |
| 20260506165305 | 55 | 292 | 1.7 | 2.6 | 0.05 | 0.14 | 0.09 | 95 | 1007.6 |
| 20260506164304 | 55 | 285 | 0.0 | 2.6 | 0.06 | 0.14 | 0.09 | 95 | 1007.6 |
| 20260506163804 | 55 | 200 | 0.0 | 1.7 | 0.06 | 0.13 | 0.08 | 95 | 1007.3 |
| 20260506162804 | 55 | 288 | 0.9 | 1.7 | 0.06 | 0.13 | 0.08 | 95 | 1007.3 |
| 20260506162306 | 55 | 288 | 0.0 | 1.7 | 0.06 | 0.13 | 0.08 | 95 | 1007.3 |
| 20260506161803 | 55 | 288 | 0.9 | 1.7 | 0.06 | 0.13 | 0.07 | 95 | 1007.3 |
| 20260506161303 | 56 | 288 | 0.0 | 1.7 | 0.06 | 0.13 | 0.07 | 94 | 1007.3 |
| 20260506160803 | 56 | 286 | 0.9 | 1.7 | 0.06 | 0.12 | 0.06 | 93 | 1007.3 |
| 20260506160304 | 56 | 287 | 0.0 | 0.9 | 0.05 | 0.11 | 0.06 | 92 | 1007.3 |
| 20260506155807 | 56 | 287 | 0.0 | 0.9 | 0.04 | 0.10 | 0.05 | 91 | 1007.3 |
| 20260506155306 | 56 | 287 | 0.9 | 1.7 | 0.03 | 0.09 | 0.04 | 90 | 1007.3 |
| 20260506154303 | 56 | 287 | 0.0 | 0.9 | 0.02 | 0.09 | 0.03 | 91 | 1007.3 |
| 20260506153804 | 56 | 287 | 0.0 | 0.9 | 0.02 | 0.08 | 0.02 | 91 | 1007.3 |
| 20260506153304 | 57 | 287 | 0.0 | 0.9 | 0.02 | 0.08 | 0.02 | 90 | 1007.3 |
| 20260506152804 | 57 | 287 | 0.0 | 0.0 | 0.02 | 0.08 | 0.02 | 90 | 1007.3 |
| 20260506152305 | 57 | 287 | 0.0 | 1.7 | 0.01 | 0.07 | 0.02 | 90 | 1007.3 |
| 20260506151303 | 58 | 279 | 0.9 | 2.6 | 0.00 | 0.06 | 0.01 | 83 | 1007.1 |
| 20260506150804 | 58 | 276 | 0.9 | 1.7 | 0.00 | 0.06 | 0.01 | 83 | 1007.1 |
| 20260506150305 | 58 | 259 | 0.0 | 1.7 | 0.00 | 0.06 | 0.01 | 85 | 1007.1 |
| 20260506145804 | 58 | 259 | 0.0 | 0.9 | 0.00 | 0.06 | 0.01 | 85 | 1007.1 |
| 20260506145305 | 58 | 259 | 0.0 | 1.7 | 0.00 | 0.06 | 0.01 | 83 | 1006.7 |
| 20260506144804 | 58 | 259 | 0.0 | 0.9 | 0.00 | 0.06 | 0.01 | 84 | 1006.7 |
| 20260506144304 | 58 | 259 | 0.0 | 2.6 | 0.00 | 0.07 | 0.01 | 83 | 1006.7 |
| 20260506143803 | 59 | 273 | 0.9 | 4.3 | 0.00 | 0.07 | 0.01 | 83 | 1006.6 |
| 20260506143304 | 59 | 303 | 0.9 | 4.3 | 0.00 | 0.07 | 0.01 | 82 | 1006.6 |
| 20260506142803 | 60 | 316 | 0.9 | 2.6 | 0.00 | 0.07 | 0.01 | 80 | 1006.5 |
| 20260506142306 | 60 | 304 | 0.9 | 4.3 | 0.00 | 0.07 | 0.01 | 79 | 1006.5 |
| 20260506141804 | 60 | 327 | 0.9 | 4.3 | 0.00 | 0.07 | 0.01 | 78 | 1006.5 |
| 20260506141304 | 60 | 329 | 1.7 | 4.3 | 0.00 | 0.07 | 0.01 | 79 | 1006.5 |
| 20260506140804 | 61 | 296 | 0.9 | 8.7 | 0.00 | 0.07 | 0.01 | 76 | 1006.4 |
| 20260506140303 | 61 | 321 | 1.7 | 4.3 | 0.00 | 0.08 | 0.01 | 75 | 1006.4 |
| 20260506135306 | 62 | 315 | 1.7 | 7.0 | 0.00 | 0.08 | 0.01 | 72 | 1005.6 |
| 20260506134303 | 64 | 296 | 1.7 | 6.1 | 0.00 | 0.09 | 0.01 | 67 | 1005.6 |
| 20260506133803 | 65 | 318 | 1.7 | 5.2 | 0.00 | 0.09 | 0.01 | 66 | 1005.6 |
| 20260506133304 | 66 | 289 | 1.7 | 5.2 | 0.00 | 0.10 | 0.01 | 66 | 1005.6 |
| 20260506132804 | 66 | 330 | 0.9 | 4.3 | 0.00 | 0.11 | 0.01 | 65 | 1005.6 |
| 20260506131803 | 65 | 266 | 0.9 | 4.3 | 0.00 | 0.11 | 0.01 | 62 | 1005.6 |
| 20260506131304 | 66 | 295 | 1.7 | 4.3 | 0.00 | 0.11 | 0.01 | 62 | 1005.6 |
| 20260506130804 | 66 | 220 | 0.0 | 0.9 | 0.00 | 0.12 | 0.01 | 62 | 1005.5 |
| 20260506130304 | 66 | 220 | 0.0 | 2.6 | 0.00 | 0.12 | 0.01 | 59 | 1005.4 |
| 20260506125804 | 66 | 220 | 0.9 | 2.6 | 0.00 | 0.13 | 0.01 | 57 | 1005.4 |
| 20260506125305 | 66 | 220 | 0.9 | 1.7 | 0.00 | 0.20 | 0.01 | 60 | 1005.4 |
| 20260506124804 | 66 | 215 | 0.9 | 1.7 | 0.00 | 0.35 | 0.01 | 59 | 1005.3 |
| 20260506124304 | 66 | 214 | 0.9 | 2.6 | 0.00 | 0.39 | 0.01 | 56 | 1005.3 |
| 20260506123804 | 66 | 206 | 0.0 | 0.9 | 0.00 | 0.39 | 0.01 | 59 | 1005.3 |
| 20260506123303 | 66 | 168 | 0.0 | 1.7 | 0.00 | 0.39 | 0.01 | 59 | 1005.3 |
| 20260506122305 | 66 | 226 | 0.0 | 0.9 | 0.00 | 0.39 | 0.01 | 61 | 1005.4 |
| 20260506121303 | 67 | 226 | 0.0 | 0.9 | 0.00 | 0.39 | 0.01 | 56 | 1005.6 |
| 20260506120803 | 67 | 226 | 0.0 | 0.9 | 0.00 | 0.39 | 0.01 | 58 | 1005.6 |
| 20260506120304 | 67 | 233 | 0.9 | 1.7 | 0.00 | 0.39 | 0.01 | 56 | 1005.6 |
| 20260506115306 | 67 | 158 | 0.0 | 1.7 | 0.00 | 0.39 | 0.01 | 60 | 1005.6 |
| 20260506114304 | 67 | 109 | 0.0 | 2.6 | 0.00 | 0.39 | 0.01 | 55 | 1005.8 |
| 20260506113804 | 68 | 115 | 0.9 | 2.6 | 0.00 | 0.39 | 0.01 | 56 | 1005.8 |
| 20260506113304 | 67 | 130 | 0.9 | 2.6 | 0.00 | 0.39 | 0.01 | 56 | 1005.8 |
| 20260506112804 | 67 | 261 | 0.9 | 2.6 | 0.00 | 0.39 | 0.01 | 58 | 1006.0 |
| 20260506112306 | 67 | 117 | 0.9 | 1.7 | 0.00 | 0.39 | 0.01 | 56 | 1006.0 |
| 20260506111803 | 67 | 117 | 0.9 | 1.7 | 0.00 | 0.39 | 0.01 | 58 | 1006.0 |
| 20260506111304 | 67 | 170 | 0.9 | 4.3 | 0.00 | 0.39 | 0.01 | 56 | 1006.0 |
| 20260506110803 | 68 | 125 | 0.9 | 2.6 | 0.00 | 0.39 | 0.01 | 56 | 1006.0 |
| 20260506105803 | 68 | 84 | 1.7 | 4.3 | 0.00 | 0.39 | 0.01 | 61 | 1006.5 |
| 20260506105305 | 68 | 188 | 0.9 | 4.3 | 0.00 | 0.39 | 0.01 | 59 | 1006.5 |
| 20260506104804 | 67 | 171 | 1.7 | 4.3 | 0.00 | 0.39 | 0.01 | 61 | 1006.5 |
| 20260506104304 | 67 | 114 | 0.9 | 2.6 | 0.00 | 0.39 | 0.01 | 64 | 1006.5 |
| 20260506103804 | 67 | 18 | 0.9 | 4.3 | 0.00 | 0.39 | 0.01 | 67 | 1006.5 |
| 20260506102804 | 66 | 107 | 0.0 | 1.7 | 0.00 | 0.39 | 0.01 | 72 | 1006.5 |
| 20260506101803 | 65 | 128 | 0.9 | 1.7 | 0.00 | 0.39 | 0.01 | 65 | 1006.5 |
| 20260506101303 | 66 | 128 | 0.9 | 4.3 | 0.00 | 0.39 | 0.01 | 68 | 1006.5 |
| 20260506100803 | 66 | 170 | 0.9 | 4.3 | 0.00 | 0.39 | 0.01 | 68 | 1006.5 |
| 20260506095804 | 65 | 319 | 0.9 | 2.6 | 0.00 | 0.39 | 0.01 | 69 | 1006.6 |
| 20260506094804 | 65 | 55 | 0.9 | 1.7 | 0.00 | 0.39 | 0.01 | 69 | 1006.6 |
| 20260506094303 | 65 | 55 | 0.9 | 2.6 | 0.00 | 0.39 | 0.01 | 75 | 1006.6 |
| 20260506093804 | 64 | 56 | 1.7 | 4.3 | 0.00 | 0.39 | 0.01 | 74 | 1006.6 |
| 20260506093304 | 65 | 105 | 0.9 | 4.3 | 0.00 | 0.39 | 0.01 | 74 | 1006.6 |
| 20260506092306 | 64 | 168 | 0.9 | 2.6 | 0.00 | 0.39 | 0.01 | 76 | 1006.7 |
| 20260506091804 | 64 | 117 | 0.9 | 2.6 | 0.00 | 0.39 | 0.01 | 75 | 1006.7 |
| 20260506085804 | 60 | 84 | 0.9 | 4.3 | 0.00 | 0.39 | 0.01 | 80 | 1006.7 |
| 20260506085306 | 60 | 115 | 0.9 | 2.6 | 0.00 | 0.39 | 0.01 | 81 | 1006.7 |
| 20260506084805 | 61 | 115 | 0.0 | 1.7 | 0.00 | 0.39 | 0.01 | 81 | 1006.7 |
| 20260506084304 | 60 | 117 | 0.9 | 1.7 | 0.00 | 0.39 | 0.01 | 81 | 1006.7 |
| 20260506083805 | 60 | 120 | 0.9 | 2.6 | 0.00 | 0.39 | 0.01 | 81 | 1006.7 |
| 20260506083304 | 60 | 74 | 0.9 | 2.6 | 0.00 | 0.39 | 0.01 | 82 | 1006.7 |
| 20260506081805 | 60 | 70 | 0.9 | 2.6 | 0.00 | 0.39 | 0.01 | 82 | 1006.7 |
| 20260506081304 | 61 | 84 | 0.9 | 1.7 | 0.00 | 0.39 | 0.01 | 80 | 1006.7 |
| 20260506080804 | 61 | 84 | 0.9 | 1.7 | 0.00 | 0.39 | 0.01 | 81 | 1006.7 |
| 20260506080305 | 61 | 84 | 0.0 | 1.7 | 0.00 | 0.39 | 0.01 | 79 | 1006.7 |
| 20260506073304 | 60 | 110 | 0.9 | 2.6 | 0.00 | 0.39 | 0.01 | 82 | 1006.9 |
| 20260506072805 | 59 | 110 | 0.0 | 0.9 | 0.00 | 0.39 | 0.01 | 84 | 1006.9 |
| 20260506072306 | 58 | 110 | 0.0 | 2.6 | 0.00 | 0.39 | 0.01 | 86 | 1006.9 |
| 20260506071304 | 56 | 110 | 0.9 | 1.7 | 0.00 | 0.39 | 0.01 | 91 | 1007.0 |
| 20260506070303 | 55 | 110 | 0.9 | 2.6 | 0.00 | 0.39 | 0.01 | 94 | 1006.8 |
| 20260506062305 | 52 | 101 | 0.9 | 1.7 | 0.00 | 0.39 | 0.01 | 99 | 1007.0 |
| 20260506061804 | 51 | 101 | 0.0 | 0.9 | 0.00 | 0.39 | 0.01 | 100 | 1007.0 |
| 20260506061303 | 51 | 101 | 0.0 | 0.9 | 0.00 | 0.39 | 0.01 | 100 | 1007.0 |
| 20260506060804 | 51 | 101 | 0.0 | 0.9 | 0.00 | 0.39 | 0.01 | 100 | 1006.8 |
| 20260506060303 | 51 | 101 | 0.0 | 0.9 | 0.00 | 0.39 | 0.01 | 100 | 1006.8 |